Flag Weather past 2 weeks in Pori, Finland

Now
34 °F

Light rain. Broken clouds.


Feels Like: 29 °F
Forecast: 34 / 36 °F
Wind: 6 mph from Southeast

Location: Pori Airport

Current Time: Nov 23, 2014 at 3:54:54 PM

Latest Report: Nov 23, 2014 at 3:20 PM


Visibility: N/A

Pressure: 30.45 "Hg

Humidity: 93%

Dew point: 32 °F

Location of PoriLocation

Historic Weather in Pori — Graph

°F

Pori temperature yesterday

Maximum temperature yesterday: 30 °F (at 12:20 AM)
Minimum temperature yesterday: 27 °F (at 2:50 AM)
Average temperature yesterday: 29 °F

Past Weeks' High & Low Weather Summary

 TemperatureHumidityPressure
High48 °F (Nov 11, 7:20 AM)100% (Nov 8, 3:50 PM)30.60 "Hg (Nov 8, 3:50 PM)
Low25 °F (Nov 20, 7:50 AM)75% (Nov 17, 12:20 PM)29.71 "Hg (Nov 11, 6:50 AM)
Average35 °F93%30.30 "Hg
* Reported Nov 8 2:20 PM — Nov 23 2:50 PM, Pori, Weather by CustomWeather, © 2014

Note: Actual official high and low records may vary slightly from our data, if they occured in-between our weather recording intervals... More about our weather records

Advertising

Pori weather history for previous 24 hours

 ConditionsComfort  
Time TempWeatherWind HumidityBarometerVisibility
2:50 PM
Nov 23
34 °FLight rain. Broken clouds.7 mph93%30.45 "Hg6 mi
2:20 PM34 °FLight rain. Mostly cloudy.5 mph100%30.45 "Hg4 mi
1:50 PM34 °FBroken clouds.3 mph100%30.45 "Hg6 mi
1:20 PM34 °FPartly sunny.3 mph100%30.45 "Hg4 mi
12:50 PM34 °FFog.7 mph100%30.45 "Hg3 mi
12:20 PM32 °FIce fog.6 mph100%30.45 "Hg2 mi
11:50 AM32 °FIce fog.5 mph100%30.45 "Hg1 mi
11:20 AM32 °FIce fog.5 mph100%30.45 "Hg1 mi
10:50 AM32 °FFog.5 mph100%30.42 "Hg1 mi
10:20 AM32 °FIce fog.5 mph93%30.42 "Hg0 mi
9:50 AM30 °FIce fog.3 mph100%30.42 "Hg0 mi
9:20 AM30 °FIce fog.3 mph100%30.42 "Hg1 mi
8:50 AM30 °FIce fog.3 mph100%30.42 "Hg1 mi
8:20 AM30 °FIce fog.3 mph100%30.39 "Hg1 mi
7:50 AM30 °FIce fog.5 mph100%30.39 "Hg1 mi
7:20 AM30 °FIce fog.2 mph100%30.39 "Hg1 mi
6:50 AM30 °FIce fog.3 mph100%30.39 "Hg1 mi
6:20 AM30 °FIce fog.5 mph93%30.39 "Hg1 mi
5:50 AM30 °FIce fog.5 mph93%30.39 "Hg1 mi
5:20 AM30 °FMostly cloudy.5 mph93%30.36 "HgN/A
4:50 AM28 °FMostly cloudy.5 mph100%30.36 "HgN/A
4:20 AM28 °FOvercast.3 mph93%30.36 "HgN/A
3:50 AM28 °FOvercast.3 mph93%30.36 "HgN/A
3:20 AM28 °FMostly cloudy.3 mph93%30.36 "HgN/A
2:50 AM28 °FMostly cloudy.3 mph93%30.36 "HgN/A
2:20 AM28 °FOvercast.No wind93%30.36 "HgN/A
1:50 AM28 °FOvercast.2 mph93%30.36 "HgN/A
1:20 AM28 °FMostly cloudy.2 mph93%30.36 "HgN/A
12:50 AM28 °FMostly cloudy.3 mph93%30.36 "HgN/A
12:20 AM28 °FMostly cloudy.1 mph93%30.36 "HgN/A
11:50 PM
Nov 22
28 °FPassing clouds.2 mph93%30.36 "HgN/A
11:20 PM28 °FMostly cloudy.3 mph93%30.33 "HgN/A
10:50 PM28 °FMostly cloudy.2 mph93%30.33 "HgN/A
10:20 PM28 °FMostly cloudy.2 mph93%30.33 "HgN/A
9:50 PM28 °FMostly cloudy.3 mph93%30.33 "HgN/A
9:20 PM28 °FOvercast.2 mph93%30.33 "HgN/A
8:50 PM28 °FMostly cloudy.2 mph93%30.33 "HgN/A
8:20 PM28 °FMostly cloudy.3 mph93%30.30 "HgN/A
7:50 PM28 °FMostly cloudy.3 mph93%30.30 "HgN/A
7:20 PM28 °FOvercast.2 mph93%30.30 "Hg6 mi
6:50 PM28 °FMostly cloudy.3 mph93%30.30 "Hg6 mi
6:20 PM28 °FPartly cloudy.1 mph93%30.30 "Hg6 mi
5:50 PM28 °FOvercast.1 mph93%30.30 "HgN/A
5:20 PM28 °FLow clouds.1 mph93%30.30 "HgN/A
4:50 PM28 °FPassing clouds.2 mph93%30.30 "HgN/A
4:20 PM28 °FLow clouds.3 mph93%30.27 "HgN/A
3:50 PM30 °FLow clouds.3 mph86%30.27 "HgN/A
3:20 PM30 °FMostly cloudy.3 mph93%30.27 "Hg6 mi
Weather by CustomWeather, © 2014

See weather overviewHow to use our weather pages